Time,TemperatureF,DewpointF,PressureIn,WindDirection,WindDirectionDegrees,WindSpeedMPH,WindSpeedGustMPH,Humidity,HourlyPrecipIn,Conditions,Clouds,dailyrainin,SolarRadiationWatts/m^2,SoftwareType,DateUTC
2013-03-02 00:01:00,32.0,26.0,-100.00,West,269,10.0,21.0,79,0.00,,,0.02,0.000000,,2013-03-02 07:01:00,
2013-03-02 00:32:00,33.0,26.0,-100.00,WNW,292,11.0,23.0,74,0.00,,,0.02,0.000000,,2013-03-02 07:32:00,
2013-03-02 00:42:00,33.0,26.0,-100.00,WNW,292,11.0,23.0,74,0.00,,,0.02,0.000000,,2013-03-02 07:42:00,
2013-03-02 00:52:00,33.0,26.0,-100.00,WNW,292,11.0,23.0,74,0.00,,,0.02,0.000000,,2013-03-02 07:52:00,
2013-03-02 01:01:00,33.0,26.0,-100.00,WNW,292,11.0,23.0,74,0.00,,,0.02,0.000000,,2013-03-02 08:01:00,
2013-03-02 01:32:00,35.0,26.0,-100.00,NW,310,12.0,25.0,69,0.00,,,0.02,0.000000,,2013-03-02 08:32:00,
2013-03-02 01:43:00,35.0,26.0,-100.00,NW,310,12.0,25.0,69,0.00,,,0.02,0.000000,,2013-03-02 08:43:00,
2013-03-02 01:52:00,35.0,26.0,-100.00,NW,310,12.0,25.0,69,0.00,,,0.02,0.000000,,2013-03-02 08:52:00,
2013-03-02 02:01:00,35.0,26.0,-100.00,NW,310,12.0,25.0,69,0.00,,,0.02,0.000000,,2013-03-02 09:01:00,
2013-03-02 02:32:00,34.0,25.0,-100.00,NW,315,11.0,24.0,70,0.00,,,0.02,0.000000,,2013-03-02 09:32:00,
2013-03-02 02:42:00,34.0,25.0,-100.00,NW,315,11.0,24.0,70,0.00,,,0.02,0.000000,,2013-03-02 09:42:00,
2013-03-02 02:52:00,34.0,25.0,-100.00,NW,315,11.0,24.0,70,0.00,,,0.02,0.000000,,2013-03-02 09:52:00,
2013-03-02 03:01:00,34.0,25.0,-100.00,NW,315,11.0,24.0,70,0.00,,,0.02,0.000000,,2013-03-02 10:01:00,
2013-03-02 03:32:00,34.0,26.0,-100.00,NW,319,12.0,26.0,72,0.00,,,0.02,0.000000,,2013-03-02 10:32:00,
2013-03-02 03:43:00,34.0,26.0,-100.00,NW,319,12.0,26.0,72,0.00,,,0.02,0.000000,,2013-03-02 10:43:00,
2013-03-02 03:52:00,34.0,26.0,-100.00,NW,319,12.0,26.0,72,0.00,,,0.02,0.000000,,2013-03-02 10:52:00,
2013-03-02 04:01:00,34.0,26.0,-100.00,NW,319,12.0,26.0,72,0.00,,,0.02,0.000000,,2013-03-02 11:01:00,
2013-03-02 04:32:00,34.0,25.0,-100.00,NW,318,12.0,26.0,70,0.00,,,-99.99,0.000000,,2013-03-02 11:32:00,
2013-03-02 04:42:00,34.0,25.0,-100.00,NW,318,12.0,26.0,70,0.00,,,-99.99,0.000000,,2013-03-02 11:42:00,
2013-03-02 04:52:00,34.0,25.0,-100.00,NW,318,12.0,26.0,70,0.00,,,-99.99,0.000000,,2013-03-02 11:52:00,
2013-03-02 05:02:00,34.0,25.0,-100.00,NW,318,12.0,26.0,70,0.00,,,-99.99,0.000000,,2013-03-02 12:02:00,
2013-03-02 05:33:00,32.0,24.0,-100.00,WNW,291,10.0,28.0,72,0.00,,,0.02,0.000000,,2013-03-02 12:33:00,
2013-03-02 05:43:00,32.0,24.0,-100.00,WNW,291,10.0,28.0,72,0.00,,,0.02,0.000000,,2013-03-02 12:43:00,
2013-03-02 05:53:00,32.0,24.0,-100.00,WNW,291,10.0,28.0,72,0.00,,,0.02,0.000000,,2013-03-02 12:53:00,
2013-03-02 06:01:00,32.0,24.0,-100.00,WNW,291,10.0,28.0,72,0.00,,,0.02,0.000000,,2013-03-02 13:01:00,
2013-03-02 06:32:00,33.0,25.0,-100.00,NW,317,14.0,26.0,71,0.00,,,0.02,0.000000,,2013-03-02 13:32:00,
2013-03-02 06:42:00,33.0,25.0,-100.00,NW,317,14.0,26.0,71,0.00,,,0.02,0.000000,,2013-03-02 13:42:00,
2013-03-02 06:52:00,33.0,25.0,-100.00,NW,317,14.0,26.0,71,0.00,,,0.02,0.000000,,2013-03-02 13:52:00,
2013-03-02 07:01:00,33.0,25.0,-100.00,NW,317,14.0,26.0,71,0.00,,,0.02,0.000000,,2013-03-02 14:01:00,
2013-03-02 07:32:00,33.0,25.0,-100.00,NW,322,12.0,26.0,71,0.00,,,0.02,15.000000,,2013-03-02 14:32:00,
2013-03-02 07:42:00,33.0,25.0,-100.00,NW,322,12.0,26.0,71,0.00,,,0.02,15.000000,,2013-03-02 14:42:00,
2013-03-02 07:52:00,33.0,25.0,-100.00,NW,322,12.0,26.0,71,0.00,,,0.02,15.000000,,2013-03-02 14:52:00,
2013-03-02 08:02:00,33.0,25.0,-100.00,NW,322,12.0,26.0,71,0.00,,,0.02,15.000000,,2013-03-02 15:02:00,
2013-03-02 08:32:00,35.0,25.0,-100.00,NW,319,11.0,26.0,67,0.00,,,0.02,92.000000,,2013-03-02 15:32:00,
2013-03-02 08:42:00,35.0,25.0,-100.00,NW,319,11.0,26.0,67,0.00,,,0.02,92.000000,,2013-03-02 15:42:00,
2013-03-02 08:52:00,35.0,25.0,-100.00,NW,319,11.0,26.0,67,0.00,,,0.02,92.000000,,2013-03-02 15:52:00,
2013-03-02 09:01:00,35.0,25.0,-100.00,NW,319,11.0,26.0,67,0.00,,,0.02,92.000000,,2013-03-02 16:01:00,
2013-03-02 09:32:00,39.0,26.0,-100.00,NW,323,10.0,22.0,60,0.00,,,0.02,281.000000,,2013-03-02 16:32:00,
2013-03-02 09:42:00,39.0,26.0,-100.00,NW,323,10.0,22.0,60,0.00,,,0.02,281.000000,,2013-03-02 16:42:00,
2013-03-02 09:52:00,39.0,26.0,-100.00,NW,323,10.0,22.0,60,0.00,,,0.02,281.000000,,2013-03-02 16:52:00,
2013-03-02 10:01:00,39.0,26.0,-100.00,NW,323,10.0,22.0,60,0.00,,,0.02,281.000000,,2013-03-02 17:01:00,
2013-03-02 10:32:00,42.0,26.0,-100.00,NW,316,8.0,19.0,53,0.00,,,0.00,363.000000,,2013-03-02 17:32:00,
2013-03-02 10:42:00,42.0,26.0,-100.00,NW,316,8.0,19.0,53,0.00,,,0.00,363.000000,,2013-03-02 17:42:00,
2013-03-02 10:52:00,42.0,26.0,-100.00,NW,316,8.0,19.0,53,0.00,,,0.00,363.000000,,2013-03-02 17:52:00,
2013-03-02 11:02:00,42.0,26.0,-100.00,NW,316,8.0,19.0,53,0.00,,,0.00,363.000000,,2013-03-02 18:02:00,
2013-03-02 11:32:00,43.0,26.0,-100.00,NW,322,9.0,22.0,50,0.00,,,0.00,480.000000,,2013-03-02 18:32:00,
2013-03-02 11:42:00,43.0,26.0,-100.00,NW,322,9.0,22.0,50,0.00,,,0.00,480.000000,,2013-03-02 18:42:00,
2013-03-02 11:52:00,43.0,26.0,-100.00,NW,322,9.0,22.0,50,0.00,,,0.00,480.000000,,2013-03-02 18:52:00,
2013-03-02 12:01:00,43.0,26.0,-100.00,NW,322,9.0,22.0,50,0.00,,,0.00,480.000000,,2013-03-02 19:01:00,
2013-03-02 12:32:00,44.0,25.0,-100.00,NNW,333,10.0,22.0,46,0.00,,,0.00,598.000000,,2013-03-02 19:32:00,
2013-03-02 12:42:00,44.0,25.0,-100.00,NNW,333,10.0,22.0,46,0.00,,,0.00,598.000000,,2013-03-02 19:42:00,
2013-03-02 12:52:00,44.0,25.0,-100.00,NNW,333,10.0,22.0,46,0.00,,,0.00,598.000000,,2013-03-02 19:52:00,
2013-03-02 13:01:00,44.0,25.0,-100.00,NNW,333,10.0,22.0,46,0.00,,,0.00,598.000000,,2013-03-02 20:01:00,
2013-03-02 13:32:00,44.0,24.0,-100.00,West,273,10.0,22.0,45,0.00,,,0.00,672.000000,,2013-03-02 20:32:00,
2013-03-02 13:42:00,44.0,24.0,-100.00,West,273,10.0,22.0,45,0.00,,,0.00,672.000000,,2013-03-02 20:42:00,
2013-03-02 13:53:00,44.0,24.0,-100.00,West,273,10.0,22.0,45,0.00,,,0.00,672.000000,,2013-03-02 20:53:00,
2013-03-02 14:02:00,44.0,24.0,-100.00,West,273,10.0,22.0,45,0.00,,,0.00,672.000000,,2013-03-02 21:02:00,
2013-03-02 14:32:00,43.0,23.0,-100.00,West,270,8.0,27.0,45,0.00,,,0.00,640.000000,,2013-03-02 21:32:00,
2013-03-02 14:42:00,43.0,23.0,-100.00,West,270,8.0,27.0,45,0.00,,,0.00,640.000000,,2013-03-02 21:42:00,
2013-03-02 14:52:00,43.0,23.0,-100.00,West,270,8.0,27.0,45,0.00,,,0.00,640.000000,,2013-03-02 21:52:00,
2013-03-02 15:02:00,43.0,23.0,-100.00,West,270,8.0,27.0,45,0.00,,,0.00,640.000000,,2013-03-02 22:02:00,
2013-03-02 15:32:00,44.0,23.0,-100.00,West,276,8.0,20.0,44,0.00,,,0.00,506.000000,,2013-03-02 22:32:00,
2013-03-02 15:42:00,44.0,23.0,-100.00,West,276,8.0,20.0,44,0.00,,,0.00,506.000000,,2013-03-02 22:42:00,
2013-03-02 15:52:00,44.0,23.0,-100.00,West,276,8.0,20.0,44,0.00,,,0.00,506.000000,,2013-03-02 22:52:00,
2013-03-02 16:01:00,44.0,23.0,-100.00,West,276,8.0,20.0,44,0.00,,,0.00,506.000000,,2013-03-02 23:01:00,
2013-03-02 16:32:00,41.0,23.0,-100.00,WNW,282,9.0,20.0,48,0.00,,,0.00,345.000000,,2013-03-02 23:32:00,
2013-03-02 16:42:00,41.0,23.0,-100.00,WNW,282,9.0,20.0,48,0.00,,,0.00,345.000000,,2013-03-02 23:42:00,
2013-03-02 16:52:00,41.0,23.0,-100.00,WNW,282,9.0,20.0,48,0.00,,,0.00,345.000000,,2013-03-02 23:52:00,
2013-03-02 17:02:00,41.0,23.0,-100.00,WNW,282,9.0,20.0,48,0.00,,,0.00,345.000000,,2013-03-03 00:02:00,
2013-03-02 17:32:00,39.0,23.0,-100.00,WNW,282,9.0,20.0,52,0.00,,,0.00,103.000000,,2013-03-03 00:32:00,
2013-03-02 17:42:00,39.0,23.0,-100.00,WNW,282,9.0,20.0,52,0.00,,,0.00,103.000000,,2013-03-03 00:42:00,
2013-03-02 17:52:00,39.0,23.0,-100.00,WNW,282,9.0,20.0,52,0.00,,,0.00,103.000000,,2013-03-03 00:52:00,
2013-03-02 18:01:00,39.0,23.0,-100.00,WNW,282,9.0,20.0,52,0.00,,,0.00,103.000000,,2013-03-03 01:01:00,
2013-03-02 18:32:00,37.0,22.0,-100.00,West,273,9.0,18.0,54,0.00,,,0.00,19.000000,,2013-03-03 01:32:00,
2013-03-02 18:42:00,37.0,22.0,-100.00,West,273,9.0,18.0,54,0.00,,,0.00,19.000000,,2013-03-03 01:42:00,
2013-03-02 18:52:00,37.0,22.0,-100.00,West,273,9.0,18.0,54,0.00,,,0.00,19.000000,,2013-03-03 01:52:00,
2013-03-02 19:01:00,37.0,22.0,-100.00,West,273,9.0,18.0,54,0.00,,,0.00,19.000000,,2013-03-03 02:01:00,
2013-03-02 19:32:00,37.0,22.0,-100.00,West,265,10.0,19.0,55,0.00,,,0.00,0.000000,,2013-03-03 02:32:00,
2013-03-02 19:42:00,37.0,22.0,-100.00,West,265,10.0,19.0,55,0.00,,,0.00,0.000000,,2013-03-03 02:42:00,
2013-03-02 19:52:00,37.0,22.0,-100.00,West,265,10.0,19.0,55,0.00,,,0.00,0.000000,,2013-03-03 02:52:00,
2013-03-02 20:01:00,37.0,22.0,-100.00,West,265,10.0,19.0,55,0.00,,,0.00,0.000000,,2013-03-03 03:01:00,
2013-03-02 20:32:00,37.0,22.0,-100.00,WSW,256,9.0,20.0,54,0.00,,,0.00,0.000000,,2013-03-03 03:32:00,
2013-03-02 20:42:00,37.0,22.0,-100.00,WSW,256,9.0,20.0,54,0.00,,,0.00,0.000000,,2013-03-03 03:42:00,
2013-03-02 20:52:00,37.0,22.0,-100.00,WSW,256,9.0,20.0,54,0.00,,,0.00,0.000000,,2013-03-03 03:52:00,
2013-03-02 21:01:00,37.0,22.0,-100.00,WSW,256,9.0,20.0,54,0.00,,,0.00,0.000000,,2013-03-03 04:01:00,
2013-03-02 21:32:00,36.0,22.0,-100.00,SW,235,7.0,14.0,57,0.00,,,0.00,0.000000,,2013-03-03 04:32:00,
2013-03-02 21:42:00,36.0,22.0,-100.00,SW,235,7.0,14.0,57,0.00,,,0.00,0.000000,,2013-03-03 04:42:00,
2013-03-02 21:52:00,36.0,22.0,-100.00,SW,235,7.0,14.0,57,0.00,,,0.00,0.000000,,2013-03-03 04:52:00,
2013-03-02 22:02:00,36.0,22.0,-100.00,SW,235,7.0,14.0,57,0.00,,,0.00,0.000000,,2013-03-03 05:02:00,
2013-03-02 22:32:00,36.0,23.0,-100.00,SW,219,8.0,14.0,58,0.00,,,0.00,0.000000,,2013-03-03 05:32:00,
2013-03-02 22:42:00,36.0,23.0,-100.00,SW,219,8.0,14.0,58,0.00,,,0.00,0.000000,,2013-03-03 05:42:00,
2013-03-02 22:52:00,36.0,23.0,-100.00,SW,219,8.0,14.0,58,0.00,,,0.00,0.000000,,2013-03-03 05:52:00,
2013-03-02 23:02:00,36.0,23.0,-100.00,SW,219,8.0,14.0,58,0.00,,,0.00,0.000000,,2013-03-03 06:02:00,
2013-03-02 23:32:00,37.0,23.0,-100.00,SW,214,10.0,15.0,56,0.00,,,0.00,0.000000,,2013-03-03 06:32:00,
2013-03-02 23:42:00,37.0,23.0,-100.00,SW,214,10.0,15.0,56,0.00,,,0.00,0.000000,,2013-03-03 06:42:00,
2013-03-02 23:52:00,37.0,23.0,-100.00,SW,214,10.0,15.0,56,0.00,,,0.00,0.000000,,2013-03-03 06:52:00,